Flag Weather past 2 weeks in Al Hudaydah, Yemen

Now
79 °F

Scattered clouds.


Feels Like: 83 °F
Forecast: 81 / 89 °F
Wind: 2 mph from North

Location: Hodeidah

Current Time: Nov 27, 2014 at 7:50:33 AM

Latest Report: Nov 27, 2014 at 7:00 AM


Visibility: 2 mi

Pressure: 29.92 "Hg

Humidity: 94%

Dew point: 77 °F

Location of Al HudaydahLocation

Historic Weather in Al Hudaydah — Graph

°F

Al Hudaydah temperature yesterday

Maximum temperature yesterday: 86 °F (at 1:00 PM)
Minimum temperature yesterday: 81 °F (at 4:00 AM)
Average temperature yesterday: 83 °F

Past Weeks' High & Low Weather Summary

 TemperatureHumidityPressure
High90 °F (Nov 12, 1:00 PM)100% (Nov 27, 5:00 AM)29.98 "Hg (Nov 27, 5:00 AM)
Low73 °F (Nov 16, 6:00 AM)49% (Nov 12, 9:00 AM)29.77 "Hg (Nov 13, 2:00 PM)
Average83 °F72%29.87 "Hg
* Reported Nov 12 7:00 AM — Nov 27 7:00 AM, Al Hudaydah, Weather by CustomWeather, © 2014

Note: Actual official high and low records may vary slightly from our data, if they occured in-between our weather recording intervals... More about our weather records

Advertising

Al Hudaydah weather history for previous 24 hours

 ConditionsComfort  
Time TempWeatherWind HumidityBarometerVisibility
7:00 AM
Nov 27
79 °FScattered clouds.2 mph94%29.92 "Hg2 mi
6:00 AM81 °FPassing clouds.No wind94%29.89 "Hg2 mi
5:00 AM79 °FPassing clouds.3 mph100%29.89 "Hg3 mi
4:00 AM79 °FThunderstorms. Passing clouds.6 mph94%29.86 "Hg3 mi
3:00 AM81 °FPassing clouds.5 mph89%29.86 "Hg4 mi
2:00 AM82 °FPassing clouds.3 mph89%29.86 "Hg5 mi
1:00 AM82 °FPassing clouds.5 mph84%29.86 "Hg5 mi
12:00 AM82 °FClear.6 mph84%29.89 "Hg5 mi
11:00 PM
Nov 26
82 °FPassing clouds.5 mph84%29.89 "Hg4 mi
3:00 PM86 °FPassing clouds.12 mph75%29.86 "HgN/A
2:00 PM86 °FPassing clouds.12 mph70%29.86 "HgN/A
1:00 PM86 °FScattered clouds.10 mph75%29.89 "HgN/A
12:00 PM84 °FScattered clouds.10 mph74%29.92 "HgN/A
11:00 AM84 °FScattered clouds.9 mph74%29.92 "HgN/A
10:00 AM82 °FScattered clouds.5 mph79%29.95 "HgN/A
9:00 AM81 °FScattered clouds.6 mph79%29.95 "HgN/A
7:00 AM81 °FWarm.N/A79%29.89 "HgN/A
Weather by CustomWeather, © 2014

See weather overviewHow to use our weather pages